Location: ČR
(50.0000°N, 15.0000°E)
Time: 06:55:36
(UTC+02:00)

A-11 Canister half - Pass Details

Date: 16 March 2026
Orbit: 1514 x 1685 km, 47.2° (Epoch: 18 April)

Event Time Altitude Azimuth Distance (km) Brightness Sun altitude
Rises 11:32:50 0° 178° (S) 4,799 12.5 37.8°
Reaches altitude 10° 11:37:33 10° 158° (SSE) 3,851 12.3 37.9°
Maximum altitude 11:42:51 16° 125° (SE) 3,424 11.6 38.1°
Drops below altitude 10° 11:48:13 10° 92° (E) 3,923 11.3 38.2°
Sets 11:53:02 0° 73° (ENE) 4,933 11.6 38.3°
